| time (UTC) | temp F | wind direction | speed MPH | gust MPH | rain 1hr in | rain 24hr in | rain mn in | humidity % | barometer mb |
| 20260503004636 | 52 | 168 | 7.0 | 11.0 | 0.00 | 0.00 | 0.00 | 74 | 1022.0 |
| 20260503004211 | 52 | 135 | 7.0 | 11.0 | 0.00 | 0.00 | 0.00 | 75 | 1022.1 |
| 20260503002610 | 52 | 192 | 6.0 | 10.0 | 0.00 | 0.00 | 0.00 | 73 | 1022.3 |
| 20260503002112 | 52 | 162 | 6.0 | 10.0 | 0.00 | 0.00 | 0.00 | 74 | 1022.2 |
| 20260503001551 | 52 | 162 | 7.0 | 11.0 | 0.00 | 0.00 | 0.00 | 74 | 1022.2 |
| 20260503001048 | 52 | 183 | 7.0 | 11.0 | 0.00 | 0.00 | 0.00 | 73 | 1022.3 |
| 20260503000601 | 52 | 145 | 8.0 | 10.0 | 0.00 | 0.00 | 0.00 | 73 | 1022.3 |
| 20260503000041 | 52 | 186 | 7.0 | 10.0 | 0.00 | 0.00 | 0.00 | 73 | 1022.4 |
| 20260502235557 | 52 | 165 | 6.0 | 9.0 | 0.00 | 0.00 | 0.00 | 73 | 1022.3 |
| 20260502235037 | 52 | 197 | 7.0 | 10.0 | 0.00 | 0.00 | 0.00 | 72 | 1022.4 |
| 20260502234028 | 52 | 175 | 7.0 | 10.0 | 0.00 | 0.00 | 0.00 | 72 | 1022.4 |
| 20260502233523 | 52 | 195 | 7.0 | 10.0 | 0.00 | 0.00 | 0.00 | 72 | 1022.5 |
| 20260502233001 | 52 | 213 | 8.0 | 11.0 | 0.00 | 0.00 | 0.00 | 71 | 1022.5 |
| 20260502232456 | 52 | 202 | 7.0 | 11.0 | 0.00 | 0.00 | 0.00 | 71 | 1022.6 |
| 20260502231953 | 52 | 206 | 9.0 | 11.0 | 0.00 | 0.00 | 0.00 | 70 | 1022.6 |
| 20260502231448 | 53 | 197 | 7.0 | 11.0 | 0.00 | 0.00 | 0.00 | 70 | 1022.5 |
| 20260502230953 | 53 | 173 | 7.0 | 12.0 | 0.00 | 0.00 | 0.00 | 69 | 1022.6 |
| 20260502225945 | 53 | 196 | 9.0 | 11.0 | 0.00 | 0.00 | 0.00 | 68 | 1022.6 |
| 20260502225449 | 53 | 196 | 9.0 | 11.0 | 0.00 | 0.00 | 0.00 | 67 | 1022.7 |
| 20260502224943 | 53 | 216 | 7.0 | 10.0 | 0.00 | 0.00 | 0.00 | 67 | 1022.6 |
| 20260502224450 | 53 | 216 | 8.0 | 10.0 | 0.00 | 0.00 | 0.00 | 67 | 1022.7 |
| 20260502223944 | 53 | 216 | 6.0 | 10.0 | 0.00 | 0.00 | 0.00 | 67 | 1022.7 |
| 20260502223446 | 54 | 226 | 6.0 | 10.0 | 0.00 | 0.00 | 0.00 | 66 | 1022.6 |
| 20260502222958 | 54 | 231 | 6.0 | 10.0 | 0.00 | 0.00 | 0.00 | 66 | 1022.6 |
| 20260502222446 | 54 | 226 | 7.0 | 10.0 | 0.00 | 0.00 | 0.00 | 65 | 1022.6 |
| 20260502221951 | 55 | 227 | 7.0 | 10.0 | 0.00 | 0.00 | 0.00 | 64 | 1022.5 |
| 20260502220954 | 55 | 226 | 7.0 | 9.0 | 0.00 | 0.00 | 0.00 | 61 | 1022.7 |
| 20260502220443 | 57 | 251 | 4.0 | 5.0 | 0.00 | 0.00 | 0.00 | 56 | 1022.7 |
| 20260502215944 | 58 | 234 | 2.0 | 3.0 | 0.00 | 0.00 | 0.00 | 55 | 1022.7 |
| 20260502215437 | 58 | 147 | 2.0 | 2.0 | 0.00 | 0.00 | 0.00 | 55 | 1022.6 |
| 20260502214942 | 59 | 200 | 1.0 | 2.0 | 0.00 | 0.00 | 0.00 | 53 | 1022.6 |
| 20260502214435 | 60 | 234 | 0.0 | 3.0 | 0.00 | 0.00 | 0.00 | 52 | 1022.6 |
| 20260502213936 | 60 | 24 | 1.0 | 3.0 | 0.00 | 0.00 | 0.00 | 51 | 1022.6 |
| 20260502213435 | 61 | 23 | 3.0 | 3.0 | 0.00 | 0.00 | 0.00 | 50 | 1022.6 |
| 20260502212940 | 61 | 23 | 2.0 | 2.0 | 0.00 | 0.00 | 0.00 | 50 | 1022.6 |
| 20260502212435 | 61 | 21 | 1.0 | 2.0 | 0.00 | 0.00 | 0.00 | 51 | 1022.6 |
| 20260502211936 | 60 | 21 | 2.0 | 2.0 | 0.00 | 0.00 | 0.00 | 51 | 1022.6 |
| 20260502211434 | 59 | 344 | 1.0 | 3.0 | 0.00 | 0.00 | 0.00 | 52 | 1022.6 |
| 20260502210934 | 59 | 344 | 1.0 | 3.0 | 0.00 | 0.00 | 0.00 | 52 | 1022.6 |
| 20260502205934 | 60 | 321 | 0.0 | 1.0 | 0.00 | 0.00 | 0.00 | 50 | 1022.7 |
| 20260502205434 | 61 | 321 | 0.0 | 1.0 | 0.00 | 0.00 | 0.00 | 49 | 1022.7 |
| 20260502204434 | 61 | 321 | 0.0 | 0.0 | 0.00 | 0.00 | 0.00 | 49 | 1022.6 |
| 20260502203935 | 61 | 321 | 0.0 | 0.0 | 0.00 | 0.00 | 0.00 | 49 | 1022.6 |
| 20260502203435 | 61 | 323 | 0.0 | 0.0 | 0.00 | 0.00 | 0.00 | 48 | 1022.5 |
| 20260502202936 | 62 | 321 | 0.0 | 0.0 | 0.00 | 0.00 | 0.00 | 48 | 1022.5 |
| 20260502202435 | 62 | 27 | 0.0 | 1.0 | 0.00 | 0.00 | 0.00 | 48 | 1022.5 |
| 20260502201935 | 62 | 28 | 0.0 | 1.0 | 0.00 | 0.00 | 0.00 | 48 | 1022.5 |
| 20260502201439 | 62 | 73 | 0.0 | 1.0 | 0.00 | 0.00 | 0.00 | 49 | 1022.5 |
| 20260502200435 | 62 | 75 | 0.0 | 2.0 | 0.00 | 0.00 | 0.00 | 47 | 1022.5 |
| 20260502195936 | 63 | 73 | 1.0 | 4.0 | 0.00 | 0.00 | 0.00 | 47 | 1022.4 |
| 20260502195435 | 63 | 85 | 2.0 | 5.0 | 0.00 | 0.00 | 0.00 | 46 | 1022.3 |
| 20260502194933 | 63 | 79 | 3.0 | 5.0 | 0.00 | 0.00 | 0.00 | 46 | 1022.4 |
| 20260502194434 | 64 | 59 | 3.0 | 4.0 | 0.00 | 0.00 | 0.00 | 46 | 1022.3 |
| 20260502193435 | 64 | 68 | 3.0 | 4.0 | 0.00 | 0.00 | 0.00 | 46 | 1022.1 |
| 20260502192936 | 63 | 73 | 2.0 | 3.0 | 0.00 | 0.00 | 0.00 | 46 | 1022.1 |
| 20260502192434 | 63 | 66 | 2.0 | 4.0 | 0.00 | 0.00 | 0.00 | 47 | 1022.1 |
| 20260502190934 | 64 | 61 | 1.0 | 2.0 | 0.00 | 0.00 | 0.00 | 46 | 1022.0 |
| 20260502190431 | 64 | 61 | 0.0 | 3.0 | 0.00 | 0.00 | 0.00 | 46 | 1021.9 |
| 20260502185924 | 64 | 55 | 1.0 | 3.0 | 0.00 | 0.00 | 0.00 | 45 | 1021.9 |
| 20260502185423 | 64 | 56 | 2.0 | 3.0 | 0.00 | 0.00 | 0.00 | 44 | 1021.9 |
| 20260502183913 | 65 | 92 | 0.0 | 1.0 | 0.00 | 0.00 | 0.00 | 45 | 1021.7 |
| 20260502183409 | 65 | 102 | 1.0 | 2.0 | 0.00 | 0.00 | 0.00 | 44 | 1021.7 |
| 20260502182907 | 65 | 65 | 2.0 | 3.0 | 0.00 | 0.00 | 0.00 | 44 | 1021.6 |
| 20260502181842 | 65 | 68 | 2.0 | 4.0 | 0.00 | 0.00 | 0.00 | 44 | 1021.6 |
| 20260502180846 | 66 | 42 | 5.0 | 7.0 | 0.00 | 0.00 | 0.00 | 41 | 1021.5 |
| 20260502180338 | 67 | 30 | 6.0 | 9.0 | 0.00 | 0.00 | 0.00 | 41 | 1021.4 |
| 20260502170309 | 68 | 44 | 8.0 | 11.0 | 0.00 | 0.00 | 0.00 | 39 | 1021.5 |
| 20260502163808 | 69 | 25 | 8.0 | 12.0 | 0.00 | 0.00 | 0.00 | 39 | 1021.5 |
| 20260502163307 | 69 | 48 | 7.0 | 10.0 | 0.00 | 0.00 | 0.00 | 39 | 1021.5 |
| 20260502162308 | 69 | 24 | 7.0 | 12.0 | 0.00 | 0.00 | 0.00 | 39 | 1021.5 |
| 20260502161806 | 69 | 28 | 9.0 | 12.0 | 0.00 | 0.00 | 0.00 | 38 | 1021.6 |
| 20260502161308 | 69 | 34 | 7.0 | 14.0 | 0.00 | 0.00 | 0.00 | 39 | 1021.6 |
| 20260502160309 | 69 | 34 | 9.0 | 15.0 | 0.00 | 0.00 | 0.00 | 39 | 1021.6 |
| 20260502152246 | 69 | 31 | 6.0 | 15.0 | 0.00 | 0.00 | 0.00 | 38 | 1022.1 |
| 20260502151746 | 69 | 10 | 10.0 | 15.0 | 0.00 | 0.00 | 0.00 | 38 | 1022.1 |
| 20260502151245 | 69 | 321 | 4.0 | 13.0 | 0.00 | 0.00 | 0.00 | 37 | 1022.1 |
| 20260502150745 | 69 | 44 | 8.0 | 13.0 | 0.00 | 0.00 | 0.00 | 38 | 1022.1 |
| 20260502150248 | 69 | 42 | 10.0 | 13.0 | 0.00 | 0.00 | 0.00 | 38 | 1022.2 |
| 20260502130711 | 68 | 47 | 14.0 | 19.0 | 0.00 | 0.00 | 0.00 | 35 | 1023.4 |
| 20260502130206 | 68 | 54 | 13.0 | 23.0 | 0.00 | 0.00 | 0.00 | 35 | 1023.4 |
| 20260502123710 | 67 | 49 | 10.0 | 19.0 | 0.00 | 0.00 | 0.00 | 36 | 1023.6 |
| 20260502123207 | 68 | 28 | 8.0 | 18.0 | 0.00 | 0.00 | 0.00 | 38 | 1023.7 |
| 20260502122707 | 68 | 58 | 9.0 | 18.0 | 0.00 | 0.00 | 0.00 | 35 | 1023.9 |
| 20260502121705 | 68 | 79 | 8.0 | 18.0 | 0.00 | 0.00 | 0.00 | 39 | 1024.0 |
| 20260502121148 | 67 | 32 | 9.0 | 17.0 | 0.00 | 0.00 | 0.00 | 37 | 1023.9 |
| 20260502120647 | 67 | 47 | 11.0 | 19.0 | 0.00 | 0.00 | 0.00 | 40 | 1023.9 |
| 20260502115648 | 67 | 35 | 11.0 | 18.0 | 0.00 | 0.00 | 0.00 | 38 | 1024.1 |
| 20260502115145 | 67 | 45 | 8.0 | 15.0 | 0.00 | 0.00 | 0.00 | 37 | 1024.2 |
| 20260502114136 | 67 | 23 | 4.0 | 12.0 | 0.00 | 0.00 | 0.00 | 41 | 1024.1 |
| 20260502113640 | 67 | 344 | 7.0 | 14.0 | 0.00 | 0.00 | 0.00 | 42 | 1024.2 |
| 20260502113134 | 67 | 59 | 8.0 | 14.0 | 0.00 | 0.00 | 0.00 | 40 | 1024.3 |
| 20260502111637 | 66 | 31 | 9.0 | 13.0 | 0.00 | 0.00 | 0.00 | 41 | 1024.3 |
| 20260502111130 | 66 | 52 | 9.0 | 13.0 | 0.00 | 0.00 | 0.00 | 41 | 1024.4 |
| 20260502110632 | 66 | 345 | 4.0 | 13.0 | 0.00 | 0.00 | 0.00 | 41 | 1024.4 |
| 20260502110131 | 66 | 41 | 9.0 | 11.0 | 0.00 | 0.00 | 0.00 | 41 | 1024.6 |
| 20260502104628 | 64 | 52 | 10.0 | 15.0 | 0.00 | 0.00 | 0.00 | 40 | 1024.9 |
| 20260502104129 | 64 | 31 | 6.0 | 14.0 | 0.00 | 0.00 | 0.00 | 39 | 1024.9 |
| 20260502103633 | 64 | 72 | 10.0 | 14.0 | 0.00 | 0.00 | 0.00 | 41 | 1025.1 |
| 20260502102632 | 65 | 34 | 6.0 | 12.0 | 0.00 | 0.00 | 0.00 | 43 | 1025.2 |
| 20260502102129 | 64 | 55 | 6.0 | 15.0 | 0.00 | 0.00 | 0.00 | 39 | 1025.2 |
| 20260502101631 | 64 | 27 | 10.0 | 15.0 | 0.00 | 0.00 | 0.00 | 42 | 1025.2 |
| 20260502100629 | 63 | 44 | 9.0 | 15.0 | 0.00 | 0.00 | 0.00 | 42 | 1025.3 |
| 20260502091111 | 61 | 82 | 11.0 | 16.0 | 0.00 | 0.00 | 0.00 | 45 | 1025.6 |
| 20260502090611 | 61 | 31 | 11.0 | 16.0 | 0.00 | 0.00 | 0.00 | 44 | 1025.7 |
| 20260502071025 | 55 | 24 | 8.0 | 10.0 | 0.00 | 0.00 | 0.00 | 55 | 1026.0 |
| 20260502070032 | 54 | 21 | 6.0 | 10.0 | 0.00 | 0.00 | 0.00 | 58 | 1025.9 |
| 20260502065524 | 53 | 14 | 5.0 | 7.0 | 0.00 | 0.00 | 0.00 | 59 | 1025.9 |
| 20260502065038 | 53 | 340 | 5.0 | 7.0 | 0.00 | 0.00 | 0.00 | 60 | 1025.9 |
| 20260502064531 | 53 | 353 | 4.0 | 9.0 | 0.00 | 0.00 | 0.00 | 58 | 1025.9 |
| 20260502064022 | 52 | 321 | 5.0 | 9.0 | 0.00 | 0.00 | 0.00 | 58 | 1025.9 |
| 20260502063522 | 52 | 6 | 5.0 | 9.0 | 0.00 | 0.00 | 0.00 | 60 | 1025.9 |
| 20260502063027 | 51 | 10 | 6.0 | 9.0 | 0.00 | 0.00 | 0.00 | 58 | 1025.9 |
| 20260502062457 | 51 | 7 | 5.0 | 9.0 | 0.00 | 0.00 | 0.00 | 60 | 1026.0 |
| 20260502061440 | 50 | 347 | 5.0 | 7.0 | 0.00 | 0.00 | 0.00 | 61 | 1026.0 |
| 20260502060934 | 50 | 3 | 5.0 | 7.0 | 0.00 | 0.00 | 0.00 | 60 | 1026.0 |
| 20260502060435 | 50 | 8 | 4.0 | 7.0 | 0.00 | 0.00 | 0.00 | 60 | 1026.0 |
| 20260502055925 | 49 | 340 | 6.0 | 7.0 | 0.00 | 0.00 | 0.00 | 60 | 1026.0 |
| 20260502055422 | 49 | 351 | 6.0 | 7.0 | 0.00 | 0.00 | 0.00 | 60 | 1026.0 |
| 20260502054923 | 49 | 351 | 5.0 | 7.0 | 0.00 | 0.00 | 0.00 | 57 | 1026.0 |
| 20260502054424 | 49 | 336 | 4.0 | 7.0 | 0.00 | 0.00 | 0.00 | 59 | 1026.0 |
| 20260502052923 | 50 | 8 | 6.0 | 7.0 | 0.00 | 0.00 | 0.00 | 55 | 1025.9 |
| 20260502052409 | 50 | 350 | 6.0 | 7.0 | 0.00 | 0.00 | 0.00 | 56 | 1026.0 |
| 20260502051408 | 49 | 11 | 5.0 | 7.0 | 0.00 | 0.00 | 0.00 | 58 | 1025.9 |
| 20260502050346 | 48 | 20 | 5.0 | 6.0 | 0.00 | 0.00 | 0.00 | 58 | 1025.9 |
| 20260502045842 | 48 | 14 | 4.0 | 6.0 | 0.00 | 0.00 | 0.00 | 58 | 1026.0 |
| 20260502045346 | 49 | 1 | 6.0 | 6.0 | 0.00 | 0.00 | 0.00 | 58 | 1026.0 |
| 20260502044843 | 49 | 1 | 4.0 | 7.0 | 0.00 | 0.00 | 0.00 | 58 | 1025.9 |
| 20260502044339 | 49 | 355 | 6.0 | 7.0 | 0.00 | 0.00 | 0.00 | 57 | 1026.0 |
| 20260502043837 | 49 | 0 | 5.0 | 7.0 | 0.00 | 0.00 | 0.00 | 58 | 1025.9 |
| 20260502043332 | 49 | 354 | 6.0 | 7.0 | 0.00 | 0.00 | 0.00 | 58 | 1026.0 |
| 20260502042825 | 47 | 351 | 4.0 | 6.0 | 0.00 | 0.00 | 0.00 | 60 | 1026.0 |
| 20260502042325 | 47 | 3 | 5.0 | 5.0 | 0.00 | 0.00 | 0.00 | 60 | 1025.9 |
| 20260502041821 | 47 | 350 | 2.0 | 4.0 | 0.00 | 0.00 | 0.00 | 61 | 1026.0 |
| 20260502040824 | 47 | 341 | 2.0 | 4.0 | 0.00 | 0.00 | 0.00 | 61 | 1025.9 |
| 20260502035823 | 47 | 0 | 2.0 | 6.0 | 0.00 | 0.00 | 0.00 | 59 | 1025.9 |
| 20260502035325 | 48 | 348 | 3.0 | 6.0 | 0.00 | 0.00 | 0.00 | 59 | 1025.9 |
| 20260502034825 | 48 | 345 | 2.0 | 5.0 | 0.00 | 0.00 | 0.00 | 59 | 1025.9 |
| 20260502034306 | 48 | 327 | 3.0 | 5.0 | 0.00 | 0.00 | 0.00 | 59 | 1025.8 |
| 20260502033805 | 47 | 321 | 2.0 | 4.0 | 0.00 | 0.00 | 0.00 | 60 | 1025.8 |
| 20260502033303 | 47 | 8 | 1.0 | 3.0 | 0.00 | 0.00 | 0.00 | 60 | 1025.8 |
| 20260502032805 | 47 | 321 | 1.0 | 3.0 | 0.00 | 0.00 | 0.00 | 60 | 1025.7 |
| 20260502032305 | 47 | 331 | 1.0 | 3.0 | 0.00 | 0.00 | 0.00 | 60 | 1025.7 |
| 20260502031756 | 47 | 314 | 1.0 | 2.0 | 0.00 | 0.00 | 0.00 | 60 | 1025.7 |
| 20260502031251 | 47 | 340 | 1.0 | 2.0 | 0.00 | 0.00 | 0.00 | 60 | 1025.7 |
| 20260502030757 | 47 | 326 | 1.0 | 3.0 | 0.00 | 0.00 | 0.00 | 60 | 1025.8 |
| 20260502030253 | 47 | 312 | 1.0 | 3.0 | 0.00 | 0.00 | 0.00 | 60 | 1025.8 |
| 20260502025750 | 47 | 333 | 2.0 | 3.0 | 0.00 | 0.00 | 0.00 | 60 | 1025.8 |
| 20260502025249 | 47 | 326 | 2.0 | 3.0 | 0.00 | 0.00 | 0.00 | 59 | 1025.8 |
| 20260502024752 | 47 | 329 | 2.0 | 3.0 | 0.00 | 0.00 | 0.00 | 59 | 1025.8 |
| 20260502024248 | 47 | 341 | 1.0 | 3.0 | 0.00 | 0.00 | 0.00 | 58 | 1025.9 |
| 20260502023745 | 47 | 313 | 1.0 | 3.0 | 0.00 | 0.00 | 0.00 | 58 | 1025.8 |
| 20260502023247 | 47 | 331 | 1.0 | 4.0 | 0.00 | 0.00 | 0.00 | 58 | 1025.8 |
| 20260502022747 | 47 | 314 | 2.0 | 4.0 | 0.00 | 0.00 | 0.00 | 59 | 1025.8 |
| 20260502021754 | 46 | 327 | 1.0 | 2.0 | 0.00 | 0.00 | 0.00 | 59 | 1025.9 |
| 20260502020754 | 46 | 305 | 2.0 | 4.0 | 0.00 | 0.00 | 0.00 | 57 | 1025.9 |
| 20260502015732 | 47 | 0 | 2.0 | 3.0 | 0.00 | 0.00 | 0.00 | 57 | 1025.9 |
| 20260502015227 | 47 | 337 | 2.0 | 4.0 | 0.00 | 0.00 | 0.00 | 57 | 1025.9 |
| 20260502014719 | 47 | 334 | 2.0 | 7.0 | 0.00 | 0.00 | 0.00 | 56 | 1026.0 |
| 20260502014209 | 47 | 337 | 4.0 | 7.0 | 0.00 | 0.00 | 0.00 | 55 | 1026.0 |
| 20260502013703 | 47 | 1 | 5.0 | 9.0 | 0.00 | 0.00 | 0.00 | 56 | 1025.9 |
| 20260502013220 | 47 | 340 | 5.0 | 9.0 | 0.00 | 0.00 | 0.00 | 56 | 1025.9 |
| 20260502011647 | 46 | 353 | 7.0 | 9.0 | 0.00 | 0.00 | 0.00 | 57 | 1026.0 |
| 20260502011148 | 46 | 345 | 5.0 | 9.0 | 0.00 | 0.00 | 0.00 | 56 | 1026.1 |
| 20260502010644 | 47 | 345 | 6.0 | 7.0 | 0.00 | 0.00 | 0.00 | 55 | 1026.0 |
| 20260502010138 | 47 | 344 | 6.0 | 7.0 | 0.00 | 0.00 | 0.00 | 55 | 1026.1 |
| 20260502005643 | 47 | 358 | 5.0 | 7.0 | 0.00 | 0.00 | 0.00 | 53 | 1026.1 |